When you browse on this site, cookies collect data to enhance your experience and personalize the content and advertising you see.
Visit our Privacy Policy to learn more. By continuing to use the site, you agree to this use of cookies and data.
  • en Suisse
  • Liste des pays
  • À 7 jours
  • Température de l'eau
  • Carte satellitaire
  • Carte météo
  • Widgets météo
  • user-avatar
    Se connecter

    Météo par heure à Deushevo

    Ce jour, 23 Janvier, Mercredi

    Heure Température Précipitation Vent Pression Humidité
    00:00 -21°C° 0 mm 2 m/s 741 mmHg 99%
    01:00 -23°C° 0 mm 2 m/s 741 mmHg 99%
    02:00 -24°C° 0 mm 2 m/s 742 mmHg 99%
    03:00 -24°C° 0 mm 2 m/s 742 mmHg 99%
    04:00 -24°C° 0 mm 2 m/s 742 mmHg 99%
    05:00 -24°C° 0 mm 2 m/s 742 mmHg 98%
    06:00 -24°C° 0 mm 2 m/s 743 mmHg 98%
    07:00 -25°C° 0 mm 2 m/s 743 mmHg 98%
    08:00 -25°C° 0 mm 2 m/s 744 mmHg 98%
    09:00 -25°C° 0 mm 2 m/s 744 mmHg 98%
    10:00 -25°C° 0 mm 2 m/s 745 mmHg 98%
    11:00 -24°C° 0 mm 2 m/s 745 mmHg 97%
    12:00 -25°C° 0 mm 3 m/s 745 mmHg 97%
    13:00 -24°C° 0 mm 3 m/s 746 mmHg 96%
    14:00 -25°C° 0 mm 3 m/s 746 mmHg 97%
    15:00 -24°C° 0 mm 2 m/s 746 mmHg 97%
    16:00 -24°C° 0 mm 2 m/s 746 mmHg 98%
    17:00 -25°C° 0 mm 2 m/s 747 mmHg 98%
    18:00 -25°C° 0 mm 2 m/s 747 mmHg 98%
    19:00 -26°C° 0 mm 2 m/s 748 mmHg 98%
    20:00 -26°C° 0 mm 2 m/s 748 mmHg 98%
    21:00 -26°C° 0 mm 2 m/s 749 mmHg 98%
    22:00 -26°C° 0 mm 2 m/s 749 mmHg 98%
    23:00 -26°C° 0 mm 2 m/s 749 mmHg 98%

    Demain, 24 Janvier, Jeudi

    Heure Température Précipitation Vent Pression Humidité
    00:00 -26°C° 0 mm 2 m/s 750 mmHg 98%
    01:00 -26°C° 0 mm 2 m/s 750 mmHg 98%
    02:00 -26°C° 0 mm 2 m/s 750 mmHg 98%
    03:00 -26°C° 0 mm 2 m/s 751 mmHg 98%
    04:00 -26°C° 0 mm 2 m/s 751 mmHg 98%
    05:00 -27°C° 0 mm 2 m/s 752 mmHg 98%
    06:00 -29°C° 0 mm 3 m/s 752 mmHg 98%
    07:00 -29°C° 0 mm 3 m/s 752 mmHg 98%
    08:00 -29°C° 0 mm 3 m/s 753 mmHg 98%
    09:00 -27°C° 0 mm 3 m/s 753 mmHg 98%
    10:00 -27°C° 0 mm 3 m/s 753 mmHg 97%
    11:00 -26°C° 0 mm 3 m/s 753 mmHg 97%
    12:00 -25°C° 0 mm 3 m/s 753 mmHg 96%
    13:00 -24°C° 0 mm 3 m/s 753 mmHg 95%
    14:00 -24°C° 0 mm 3 m/s 753 mmHg 96%
    15:00 -24°C° 0 mm 3 m/s 753 mmHg 96%
    16:00 -24°C° 0 mm 3 m/s 753 mmHg 96%
    17:00 -24°C° 0 mm 3 m/s 753 mmHg 96%
    18:00 -25°C° 0 mm 4 m/s 753 mmHg 96%
    19:00 -25°C° 0 mm 4 m/s 753 mmHg 95%
    20:00 -24°C° 0 mm 4 m/s 752 mmHg 94%
    21:00 -23°C° 0 mm 4 m/s 751 mmHg 93%
    22:00 -23°C° 0 mm 4 m/s 751 mmHg 91%
    23:00 -22°C° 0.1 mm 5 m/s 750 mmHg 91%

    Après-demain, 25 Janvier, Vendredi

    Heure Température Précipitation Vent Pression Humidité
    00:00 -21°C° 0.1 mm 5 m/s 749 mmHg 91%
    01:00 -20°C° 0.1 mm 5 m/s 748 mmHg 91%
    02:00 -19°C° 0.3 mm 5 m/s 747 mmHg 91%
    03:00 -18°C° 0.3 mm 6 m/s 746 mmHg 91%
    04:00 -17°C° 0.3 mm 6 m/s 745 mmHg 91%
    05:00 -16°C° 0.3 mm 6 m/s 744 mmHg 92%
    06:00 -16°C° 0.3 mm 6 m/s 743 mmHg 92%
    07:00 -15°C° 0.3 mm 5 m/s 742 mmHg 92%
    08:00 -15°C° 0.3 mm 5 m/s 742 mmHg 92%
    09:00 -15°C° 0.3 mm 5 m/s 742 mmHg 92%
    10:00 -15°C° 0.3 mm 5 m/s 742 mmHg 92%
    11:00 -15°C° 0.2 mm 5 m/s 741 mmHg 92%
    12:00 -14°C° 0.2 mm 5 m/s 741 mmHg 91%
    13:00 -14°C° 0.2 mm 5 m/s 741 mmHg 91%
    14:00 -15°C° 0.1 mm 5 m/s 741 mmHg 91%
    15:00 -17°C° 0.1 mm 5 m/s 742 mmHg 90%
    16:00 -17°C° 0.1 mm 5 m/s 742 mmHg 90%
    17:00 -18°C° 0 mm 4 m/s 743 mmHg 92%
    18:00 -19°C° 0 mm 4 m/s 743 mmHg 95%
    19:00 -22°C° 0 mm 4 m/s 744 mmHg 97%
    20:00 -22°C° 0.1 mm 4 m/s 745 mmHg 97%
    21:00 -23°C° 0.1 mm 4 m/s 745 mmHg 97%
    22:00 -23°C° 0.1 mm 4 m/s 746 mmHg 97%
    23:00 -24°C° 0 mm 4 m/s 747 mmHg 97%

    26 Janvier, Samedi

    Heure Température Précipitation Vent Pression Humidité
    00:00 -25°C° 0 mm 4 m/s 747 mmHg 98%
    01:00 -26°C° 0 mm 4 m/s 748 mmHg 98%
    02:00 -26°C° 0 mm 3 m/s 748 mmHg 98%
    03:00 -27°C° 0 mm 3 m/s 749 mmHg 98%
    04:00 -29°C° 0 mm 3 m/s 749 mmHg 98%
    05:00 -30°C° 0 mm 3 m/s 750 mmHg 99%
    06:00 -29°C° 0 mm 2 m/s 751 mmHg 99%
    07:00 -30°C° 0 mm 2 m/s 751 mmHg 99%
    08:00 -30°C° 0 mm 2 m/s 752 mmHg 98%
    09:00 -29°C° 0 mm 2 m/s 752 mmHg 98%
    10:00 -29°C° 0 mm 2 m/s 753 mmHg 98%
    11:00 -28°C° 0 mm 2 m/s 753 mmHg 97%
    12:00 -27°C° 0 mm 2 m/s 754 mmHg 97%
    13:00 -26°C° 0 mm 2 m/s 754 mmHg 97%
    14:00 -26°C° 0 mm 2 m/s 754 mmHg 97%
    15:00 -27°C° 0 mm 2 m/s 755 mmHg 98%
    16:00 -27°C° 0 mm 2 m/s 755 mmHg 98%
    17:00 -28°C° 0 mm 2 m/s 755 mmHg 98%
    18:00 -29°C° 0 mm 2 m/s 756 mmHg 98%
    19:00 -30°C° 0 mm 2 m/s 756 mmHg 99%
    20:00 -30°C° 0 mm 2 m/s 756 mmHg 98%
    21:00 -28°C° 0 mm 1 m/s 756 mmHg 98%
    22:00 -28°C° 0 mm 1 m/s 756 mmHg 98%
    23:00 -28°C° 0 mm 1 m/s 756 mmHg 97%

    27 Janvier, Dimanche

    Heure Température Précipitation Vent Pression Humidité
    00:00 -28°C° 0 mm 1 m/s 756 mmHg 96%
    01:00 -27°C° 0 mm 1 m/s 757 mmHg 96%
    02:00 -27°C° 0 mm 1 m/s 757 mmHg 95%
    03:00 -27°C° 0 mm 1 m/s 757 mmHg 94%
    04:00 -27°C° 0 mm 1 m/s 757 mmHg 93%
    05:00 -25°C° 0 mm 1 m/s 757 mmHg 91%
    06:00 -27°C° 0 mm 2 m/s 757 mmHg 89%
    07:00 -26°C° 0 mm 2 m/s 757 mmHg 88%
    08:00 -25°C° 0 mm 2 m/s 757 mmHg 85%
    09:00 -23°C° 0 mm 2 m/s 757 mmHg 83%
    10:00 -23°C° 0 mm 3 m/s 757 mmHg 81%
    11:00 -21°C° 0 mm 3 m/s 756 mmHg 80%
    12:00 -18°C° 0 mm 3 m/s 756 mmHg 79%
    13:00 -16°C° 0 mm 3 m/s 756 mmHg 78%
    14:00 -16°C° 0 mm 3 m/s 755 mmHg 79%
    15:00 -17°C° 0 mm 3 m/s 755 mmHg 81%
    16:00 -17°C° 0 mm 3 m/s 754 mmHg 82%
    17:00 -18°C° 0 mm 3 m/s 754 mmHg 82%
    18:00 -19°C° 0 mm 3 m/s 754 mmHg 81%
    19:00 -19°C° 0 mm 3 m/s 753 mmHg 81%
    20:00 -19°C° 0 mm 3 m/s 753 mmHg 81%
    21:00 -19°C° 0 mm 3 m/s 753 mmHg 81%
    22:00 -19°C° 0 mm 3 m/s 753 mmHg 81%
    23:00 -18°C° 0 mm 2 m/s 752 mmHg 80%

    28 Janvier, Lundi

    Heure Température Précipitation Vent Pression Humidité
    00:00 -18°C° 0 mm 2 m/s 752 mmHg 79%
    01:00 -18°C° 0 mm 2 m/s 752 mmHg 78%
    02:00 -17°C° 0 mm 2 m/s 752 mmHg 78%
    03:00 -17°C° 0 mm 2 m/s 751 mmHg 78%
    04:00 -16°C° 0 mm 2 m/s 751 mmHg 77%
    05:00 -16°C° 0 mm 2 m/s 751 mmHg 77%
    06:00 -16°C° 0 mm 2 m/s 751 mmHg 77%
    07:00 -16°C° 0 mm 2 m/s 750 mmHg 77%
    08:00 -16°C° 0 mm 2 m/s 750 mmHg 77%
    09:00 -15°C° 0 mm 2 m/s 750 mmHg 77%
    10:00 -15°C° 0 mm 2 m/s 750 mmHg 77%
    11:00 -14°C° 0 mm 2 m/s 750 mmHg 77%
    12:00 -12°C° 0 mm 2 m/s 749 mmHg 77%
    13:00 -12°C° 0 mm 3 m/s 749 mmHg 77%
    14:00 -12°C° 0 mm 3 m/s 749 mmHg 78%
    15:00 -13°C° 0 mm 3 m/s 749 mmHg 80%
    16:00 -13°C° 0 mm 3 m/s 748 mmHg 82%
    17:00 -13°C° 0 mm 3 m/s 748 mmHg 80%
    18:00 -14°C° 0 mm 3 m/s 748 mmHg 79%
    19:00 -14°C° 0 mm 3 m/s 748 mmHg 77%
    20:00 -15°C° 0 mm 3 m/s 748 mmHg 75%
    21:00 -15°C° 0 mm 3 m/s 748 mmHg 74%
    22:00 -16°C° 0 mm 3 m/s 747 mmHg 72%
    23:00 -16°C° 0 mm 3 m/s 747 mmHg 72%
    Voir plus